Location: Newark
(48.7875°N, 2.3928°E)
Time: 16:08:53
(UTC+00:00)

Envisat - Visible Passes

Search period start: 17 October 2019 00:00
Search period end: 27 October 2019 00:00
Orbit: 764 x 766 km, 98.1° (Epoch: 17 October)

Date Brightness Start Highest point End Pass type
(mag) Time Alt. Az. Time Alt. Az. Time Alt. Az.
17 Oct 3.0 17:43:35 10° SSE 17:48:40 86° ENE 17:53:47 10° NNW visible
17 Oct 6.0 19:25:42 10° WSW 19:28:23 14° W 19:31:05 10° NW visible
18 Oct 5.1 18:46:50 10° SSW 18:51:12 29° W 18:55:36 10° NW visible
19 Oct 6.7 05:14:41 10° ENE 05:15:51 11° E 05:17:02 10° E visible
19 Oct 3.7 18:09:13 10° S 18:14:13 58° W 18:19:15 10° NNW visible
20 Oct 3.0 17:32:22 10° SSE 17:37:25 71° ENE 17:42:30 10° N visible
20 Oct 5.8 19:13:36 10° SW 19:16:59 18° W 19:20:22 10° NW visible
21 Oct 6.1 05:38:14 10° NE 05:41:45 18° E 05:45:13 10° SE visible
21 Oct 4.7 18:35:13 10° SSW 18:39:51 35° W 18:44:31 10° NNW visible
22 Oct 3.3 17:57:51 10° S 18:02:55 72° WSW 18:08:01 10° NNW visible
22 Oct 6.3 19:42:15 10° W 19:42:52 10° W 19:43:30 10° WNW visible
23 Oct 3.1 17:21:14 10° SSE 17:26:11 57° ENE 17:31:11 10° N visible
23 Oct 5.5 19:01:42 10° SW 19:05:35 22° W 19:09:29 10° NW visible
24 Oct 6.2 05:27:29 10° NE 05:30:20 15° E 05:33:09 10° ESE visible
24 Oct 4.2 18:23:41 10° S 18:28:31 43° W 18:33:22 10° NNW visible
25 Oct 3.0 17:46:33 10° SSE 17:51:39 88° WSW 17:56:46 10° NNW visible
25 Oct 6.1 19:29:06 10° WSW 19:31:26 13° W 19:33:46 10° WNW visible
26 Oct 5.8 05:52:01 10° NE 05:56:09 24° E 06:00:16 10° SSE visible
26 Oct 3.3 17:10:08 10° SE 17:14:58 47° ENE 17:19:50 10° N visible
26 Oct 5.2 18:49:57 10° SSW 18:54:12 27° W 18:58:29 10° NW visible
